Weather History for Scottsdale, AZ

Change the Weather History Date:

Tuesday, October 11, 2011

  Actual Average Record
Temperature  
Mean Temperature 74 °F -  
Max Temperature 87 °F 86 °F 98 °F (1996)
Min Temperature 60 °F 64 °F 50 °F (2001)
Cooling Degree Days 8    
Growing Degree Days 24 (Base 50)    
Moisture  
Dew Point 35 °F    
Average Humidity 26    
Maximum Humidity 44    
Minimum Humidity 14    
Precipitation  
Precipitation 0.00 in - - ()
Sea Level Pressure  
Sea Level Pressure 29.81 in    
Wind  
Wind Speed 1 mph (WSW)    
Max Wind Speed 8 mph    
Max Gust Speed -    
Visibility 10 miles    
Events      
Averages and records for this station are not official NWS values.
T = Trace of Precipitation, MM = Missing Value Source: NWS Daily Summary

Daily Weather History Graph

Daily Weather History Graph

Search for Another Location

Airport:

Trip Planner

Search our weather history database for the weather conditions in past years. The results will help you decide how hot, cold, wet, or windy it might be!

Date:

Astronomy

Oct. 11, 2011 Rise Set
Actual Time 6:29 AM MST 5:59 PM MST
Civil Twilight 6:04 AM MST 6:24 PM MST
Nautical Twilight 5:35 AM MST 6:52 PM MST
Astronomical Twilight 5:06 AM MST 7:21 PM MST
Moon 5:35 PM MST (10/11) 6:08 AM MST (10/11)
Length of Visible Light 12h 19m
Length of Day
11h 29m
Full, 100% of the Moon is Illuminated
Oct 11
Full
Oct 11
Full
Oct 19
Last Quarter
Oct 26
New
Nov 2
First Quarter

Hourly Weather History & Observations

Time (MST) Temp. Dew Point Humidity Pressure Visibility Wind Dir Wind Speed Gust Speed Precip Events Conditions
12:53 AM 62.1 °F 37.0 °F 39% 29.81 in 10.0 mi Calm Calm - N/A   Clear
1:53 AM 63.0 °F 36.0 °F 37% 29.81 in 10.0 mi Calm Calm - N/A   Clear
3:53 AM 60.1 °F 37.9 °F 44% 29.81 in 10.0 mi Calm Calm - N/A   Clear
4:53 AM 61.0 °F 36.0 °F 39% 29.82 in 10.0 mi Calm Calm - N/A   Clear
5:53 AM 60.1 °F 36.0 °F 41% 29.83 in 10.0 mi Calm Calm - N/A   Clear
7:53 AM 63.0 °F 37.0 °F 38% 29.86 in 10.0 mi Calm Calm - N/A   Clear
8:53 AM 66.9 °F 37.9 °F 34% 29.87 in 10.0 mi Calm Calm - N/A   Clear
9:53 AM 73.0 °F 36.0 °F 26% 29.86 in 10.0 mi Variable 3.5 mph - N/A   Clear
10:53 AM 78.1 °F 34.0 °F 20% 29.86 in 10.0 mi WSW 4.6 mph - N/A   Clear
11:53 AM 82.0 °F 33.1 °F 17% 29.84 in 10.0 mi SW 4.6 mph - N/A   Clear
1:53 PM 86.0 °F 32.0 °F 14% 29.79 in 10.0 mi Variable 3.5 mph - N/A   Clear
2:53 PM 87.1 °F 33.1 °F 15% 29.78 in 10.0 mi SW 8.1 mph - N/A   Clear
3:53 PM 87.1 °F 32.0 °F 14% 29.77 in 10.0 mi Variable 3.5 mph - N/A   Clear
4:53 PM 87.1 °F 33.1 °F 15% 29.76 in 10.0 mi WSW 4.6 mph - N/A   Clear
5:53 PM 86.0 °F 33.1 °F 15% 29.77 in 10.0 mi SW 3.5 mph - N/A   Clear
6:53 PM 82.0 °F 34.0 °F 18% 29.78 in 10.0 mi Calm Calm - N/A   Clear
7:53 PM 79.0 °F 35.1 °F 20% 29.80 in 10.0 mi Calm Calm - N/A   Clear
8:53 PM 77.0 °F 36.0 °F 23% 29.81 in 10.0 mi North 3.5 mph - N/A   Clear
9:53 PM 75.0 °F 36.0 °F 24% 29.82 in 10.0 mi Calm Calm - N/A   Clear
10:53 PM 72.0 °F 37.9 °F 29% 29.82 in 10.0 mi Calm Calm - N/A   Clear